Погода Кривой Рог

Погода Кривой Рог : погода сейчас, прогноз погоды и архив. Всё, что Вы хотите узнать о погоде Кривой Рог!

Поиск расширенной информации на нашем сайте:

Другие новости

Новости СМИ2

Главная страница сайта

Новости сайта

02.10.2013

Напоминаем, что на нашем новом сайте вы можете получить высокодетализированные прогнозы погоды по пунктам России, СНГ и мира (включающие важные для авиации метеовеличины, такие как направление и скорость ветра, видимость, явления погоды, количество и форма облачности, нижняя и верхняя граница облачности), а также ознакомиться с разнообразными материалами по авиационной метеорологии и подборкой полезных ссылок на эту тему.

Сайт Метеоцентр.Азия посвящён разработке технологий оптимизации авиаметеорологического обслуживания, включая проектирование и перспективное создание нескольких автоматизированных авиаметеорологических систем:
- система выпуска высокодетальных прогностических карт явлений погоды для нижнего воздушного пространства по России и ближнему зарубежью;
- система верификации прогнозов TAF (выпускаемых синоптиками официальных АМСГ РФ и ближнего зарубежья) и AUTOTAF (выпускаемых сайтом Метеоцентр.Азия) - выявление ошибок, онлайн-сопоставление с фактической погодой METAR, автоматическое внесение коррективов в прогнозы при резком отклонении фактической погоды от прогноза, подсчёт оправдываемости прогнозов по элементам и в целом;
- система обработки, анализа и отображения авиаметеорологической информации для применения провайдерами метеорологической информации.

Рекомендуем: статья полностью

Погода Кривой Рог - сегодня

Время (UTC), дата Ветер
(°,м/с) 
Видим.   Явления Облачность Т
(°С)
Тd
(°С)
f(%) Тe
(°С)
Pmin
(гПа)
dP
(гПа)
Po
(мм)
O2
(г/м3)
Тmin Tmax R s Состояние
почвы
03 25.04.17 240 (ЮЗ) 10 км    ясно 
-0.3 -2.1 88 -1  1022.3  1.6  755  305           
06 25.04.17 240 (ЮЗ) 10 км    ясно 
+6.8 +2.1 72 +6  1023.7  1.8  756  297  -0.8         
09 25.04.17 230 (ЮЗ) 10 км    4/4 1000 м 
[Cu hum]
+11.6 -0.9 42 +10  1023.9  0.5  757  293           
12 25.04.17 190 (Ю) 10 км    6/0 средняя 
[Ac trans]
+14 -1.3 35 +13  1022.3  -1.5  756  290           
15 25.04.17 210 (ЮЗ) 10 км    5/0 средняя 
[Ac trans]
+14 +0.2 39 +13  1021.7  -0.6  755  289           
18 25.04.17 190 (Ю) 10 км    ясно 
+9.4 -0.5 50 +7  1023.1  1.1  756  295    +15.6       
21 25.04.17 170 (Ю) 10 км    ясно 
+5.2 -1 64 +3  1023.8  0.5  756  299           
00 26.04.17 180 (Ю) 10 км    10/10 1500 м 
[Sc]
+5.4 -0.8 64 +3  1024  0.2  757  299           
03 26.04.17 180 (Ю) 10 км    6/0 средняя 
[Ac trans]
+5 +1.7 79 +2  1024.1  0.1  757  299           
06 26.04.17 170 (Ю) 10 км    3/0 средняя 
[Ac trans]
+8.8 +2.6 65 +6  1024.5  0.6  757  295  +4.9         
12 26.04.17 150 (ЮВ) 10 км    3/0 верхняя 
[Ci fib]
+17.3 -0.5 30 +17  1022.3  -1.4  756  286           
15 26.04.17 170 (Ю) 10 км    4/0 верхняя 
[Ci fib]
+17.2 +0 31 +17  1021.3  -1  755  286           
18 26.04.17 150 (ЮВ) 10 км    6/0 верхняя 
[Ci fib]
+12 -1.3 40 +11  1021.5  -0.1  755  292    +17.5       
21 26.04.17 150 (ЮВ) 10 км    ясно 
+7.1 -1.1 56 +6  1023.4  1.6  756  297           
00 27.04.17 140 (ЮВ) 10 км    ясно 
+5.3 +0.4 71 +4  1022.4  -1.1  755  298           
03 27.04.17 120 (ЮВ) 10 км    3/0 верхняя 
[Ci fib]
+2 -0.2 85 1022.2  -0.3  755  302           
06 27.04.17 170 (Ю) 10 км    4/0 верхняя 
[Ci fib]
+10.4 -2.5 40 +10  1022.4  0.6  756  294  +2         
09 27.04.17 130 (ЮВ) 10 км    4/0 верхняя 
[Ci fib]
+16.5 -4.7 23 +16  1021.5  -0.6  755  287           
12 27.04.17 180 (Ю) 10 км    4/0 верхняя 
[Ci fib]
+20.8 -3.6 19 +21  1020.1  -1.1  754  283           
15 27.04.17 190 (Ю) 10 км    5/0 верхняя 
[Ci fib]
+20.6 -0.2 25 +21  1019.2  -0.9  754  282           
18 27.04.17 230 (ЮЗ) 10 км    3/0 верхняя 
[Ci fib]
+13.3 -2.9 32 +13  1020.2  0.6  754  290    +21.7       
21 27.04.17 150 (ЮВ) 10 км    ясно 
+10.1 -1.5 44 +10  1021.2  0.8  755  293           
00 28.04.17 150 (ЮВ) 10 км    ясно 
+8.7 -0.5 52 +8  1020.8  -0.5  754  295           
03 28.04.17 100 (В) 10 км    ясно 
+5.5 -0.9 63 +4  1020.5  -0.4  754  298           
06 28.04.17 110 (В) 10 км    ясно 
+14 +4.7 53 +15  1020.5  0.4  754  288  +5.4         
Время (UTC), дата Ветер
(°,м/с) 
Видим.   Явления Облачность Т
(°С)
Тd
(°С)
f(%) Тe
(°С)
Pmin
(гПа)
dP
(гПа)
Po
(мм)
O2
(г/м3)
Тmin Tmax R s Состояние
почвы

Для получения пояснительной информации подведите курсор к названию столбца.

ПОГОДА Кривой Рог - архив

Всё, что Вы хотите узнать о погоде Кривой Рог - удобно и подробно!

Выберите нужную дату (начиная с 1 января 2015* года) и нажмите кнопку "Найти".
Будут отображены архивные сводки погоды по пункту Кривой Рог, начиная с указанной даты.


Отображать данные в формате CSV (для использования в таблицах Excel)


Внимание! Наш архив погоды предназначен исключительно для личного некоммерческого использования в познавательных целях. Если Вам необходимы официальные справки о состоянии погоды (для производственных, юридических, коммерческих и т.п. целей), обращайтесь в органы Росгидромета.

*Примечание: данная дата относится к архиву по метеостанциям СССР (Россия, СНГ, Балтия).
Архив по метеостанциям Зарубежной Европы и Азии (кроме Китая) хранится 10 дней, по другим регионам земного шара (Китай, Африка, Америка, Австралия, Океания) - 1 день.

Кривой Рог - район местоположения метеостанции


Название, широта, долгота, высота метеостанции:
Кривой Рог (Лозоватка) 48°ш. 33.2°д. 124 м над ур. моря [Украина]

Дополнительная информация

В oтличие oт бoльшинства пoгoдных сайтoв мы публикуем пoдрoбную метеoинфoрмацию в детальнoм прoфессиoнальнoм фoрмате.

Характеристики температуры и влажнoсти вoздуха измеряются на высoте 2 м в тени вдали oт зданий и деревьев.
Скoрoсть ветра измеряется на высoте 10 м (на урoвне рoста челoвека скoрoсть ветра ниже в 1.5-2 раза). Если метеoстанция нахoдится в гoрoде или в лесу, тo скoрoсть ветра занижена на 2-4 м/с пo сравнению с oткрытым местoм. Скoрoсть ветра над акватoриями крупных рек и oзёр, а также на вершинах хoлмoв на 2-5 м/с выше, чем в oбычных услoвиях.
Атмoсфернoе давление в разных тoчках местнoсти мoжет значительнo oтличаться oт давления на метеoстанции, в зависимoсти oт услoвий рельефа (при пoдъёме на 10 м давление пoнижается примернo на 1 мм рт.ст.).